Westminster, MD

4:21 PM EDT on April 26, 2017 (GMT -0400)
Carroll County Regional-Poage

Weather History for KDMW - April, 2013

Change the Weather History Date:

Thursday, April 4, 2013

  Actual Average (KTHV) Record (KTHV)
Temperature  
Mean Temperature 37 °F -  
Max Temperature 50 °F 0 °F 81 °F (2011)
Min Temperature 24 °F - 19 °F (2013)
Degree Days  
Heating Degree Days 28    
Moisture  
Dew Point 10 °F    
Average Humidity 36    
Maximum Humidity 64    
Minimum Humidity 16    
Precipitation  
Precipitation 0.00 in - - ()
Sea Level Pressure  
Sea Level Pressure 30.27 in    
Wind  
Wind Speed 4 mph (South)    
Max Wind Speed 12 mph    
Max Gust Speed 16 mph    
Visibility 10 miles    
Events      
Averages and records for this station are not official NWS values.
T = Trace of Precipitation, MM = Missing Value Source: NWS Daily Summary

Daily Weather History Graph

Daily Weather History Graph

Search for Another Location

Airport or City:

Trip Planner

Search our weather history database for the weather conditions in past years. The results will help you decide how hot, cold, wet, or windy it might be!

Date:

Astronomy

Apr. 04, 2013 Rise Set
Actual Time 6:47 AM EDT 7:35 PM EDT
Civil Twilight 6:19 AM EDT 8:02 PM EDT
Nautical Twilight 5:47 AM EDT 8:34 PM EDT
Astronomical Twilight 5:14 AM EDT 9:08 PM EDT
Moon 3:11 AM EDT (4/4) 1:52 PM EDT (4/4)
Length of Visible Light 13h 42m
Length of Day
12h 48m
Waning Crescent, 34% of the Moon is Illuminated
Apr 4
Waning Crescent
Apr 10
New
Apr 18
First Quarter
Apr 25
Full
May 2
Last Quarter

Hourly Weather History & Observations

Time (EDT) Temp. Windchill Dew Point Humidity Pressure Visibility Wind Dir Wind Speed Gust Speed Precip Events Conditions
12:05 AM 32.0 °F 28.7 °F 12.2 °F 44% 30.35 in 10.0 mi NW 3.5 mph - N/A   Scattered Clouds
12:25 AM 30.2 °F 25.4 °F 12.2 °F 47% 30.37 in 10.0 mi West 4.6 mph - N/A   Scattered Clouds
12:45 AM 28.4 °F 22.2 °F 12.2 °F 51% 30.37 in 10.0 mi West 5.8 mph - N/A   Scattered Clouds
1:05 AM 28.4 °F 23.3 °F 12.2 °F 51% 30.37 in 10.0 mi West 4.6 mph - N/A   Scattered Clouds
1:25 AM 30.2 °F - 12.2 °F 47% 30.36 in 10.0 mi Calm Calm - N/A   Scattered Clouds
1:45 AM 30.2 °F 25.4 °F 12.2 °F 47% 30.36 in 10.0 mi NW 4.6 mph - N/A   Scattered Clouds
2:00 AM 28.4 °F - 12.2 °F 51% 30.36 in 10.0 mi Calm Calm - N/A   Scattered Clouds
2:25 AM 28.4 °F - 10.4 °F 47% 30.35 in 10.0 mi Calm Calm - N/A   Scattered Clouds
2:45 AM 28.4 °F - 12.2 °F 51% 30.35 in 10.0 mi Calm Calm - N/A   Clear
3:05 AM 28.4 °F - 12.2 °F 51% 30.35 in 10.0 mi Calm Calm - N/A   Clear
3:25 AM 26.6 °F - 12.2 °F 55% 30.35 in 10.0 mi Calm Calm - N/A   Clear
3:40 AM 26.6 °F - 10.4 °F 51% 30.35 in 10.0 mi Calm Calm - N/A   Scattered Clouds
4:05 AM 26.6 °F - 15.8 °F 64% 30.34 in 10.0 mi Calm Calm - N/A   Scattered Clouds
4:25 AM 26.6 °F - 12.2 °F 55% 30.36 in 10.0 mi Calm Calm - N/A   Scattered Clouds
5:00 AM 26.6 °F 22.6 °F 10.4 °F 51% 30.37 in 10.0 mi WNW 3.5 mph - N/A   Scattered Clouds
5:25 AM 26.6 °F - 12.2 °F 55% 30.38 in 10.0 mi Calm Calm - N/A   Scattered Clouds
5:45 AM 24.8 °F 20.5 °F 12.2 °F 59% 30.38 in 10.0 mi WSW 3.5 mph - N/A   Scattered Clouds
6:05 AM 24.8 °F - 12.2 °F 59% 30.39 in 10.0 mi Calm Calm - N/A   Clear
6:25 AM 24.8 °F - 12.2 °F 59% 30.39 in 10.0 mi Calm Calm - N/A   Scattered Clouds
6:45 AM 24.8 °F - 10.4 °F 54% 30.39 in 10.0 mi Calm Calm - N/A   Scattered Clouds
7:25 AM 24.8 °F - 14.0 °F 64% 30.39 in 10.0 mi Calm Calm - N/A   Clear
7:45 AM 26.6 °F - 12.2 °F 55% 30.38 in 10.0 mi Calm Calm - N/A   Clear
8:05 AM 26.6 °F 22.6 °F 12.2 °F 55% 30.38 in 10.0 mi ENE 3.5 mph - N/A   Clear
8:25 AM 28.4 °F 23.3 °F 14.0 °F 55% 30.37 in 10.0 mi NNE 4.6 mph - N/A   Clear
8:45 AM 30.2 °F 26.7 °F 12.2 °F 47% 30.37 in 10.0 mi North 3.5 mph - N/A   Clear
9:05 AM 32.0 °F 25.6 °F 10.4 °F 41% 30.36 in 10.0 mi ENE 6.9 mph - N/A   Scattered Clouds
9:25 AM 33.8 °F 27.7 °F 12.2 °F 41% 30.36 in 10.0 mi East 6.9 mph - N/A   Clear
9:45 AM 35.6 °F - 12.2 °F 38% 30.37 in 10.0 mi Calm Calm - N/A   Clear
10:05 AM 35.6 °F - 10.4 °F 35% 30.36 in 10.0 mi Calm Calm - N/A   Clear
10:25 AM 35.6 °F - 10.4 °F 35% 30.36 in 10.0 mi Calm Calm - N/A   Clear
10:45 AM 39.2 °F 37.0 °F 12.2 °F 33% 30.36 in 10.0 mi South 3.5 mph - N/A   Clear
11:05 AM 39.2 °F 35.0 °F 10.4 °F 31% 30.35 in 10.0 mi South 5.8 mph - N/A   Clear
11:25 AM 42.8 °F 40.1 °F 10.4 °F 27% 30.35 in 10.0 mi South 4.6 mph - N/A   Clear
11:45 AM 42.8 °F 39.3 °F 10.4 °F 27% 30.34 in 10.0 mi South 5.8 mph - N/A   Clear
12:05 PM 42.8 °F 40.1 °F 8.6 °F 25% 30.34 in 10.0 mi South 4.6 mph - N/A   Clear
12:25 PM 42.8 °F 39.3 °F 10.4 °F 27% 30.32 in 10.0 mi SSE 5.8 mph - N/A   Clear
12:45 PM 44.6 °F 43.1 °F 8.6 °F 23% 30.31 in 10.0 mi SSE 3.5 mph - N/A   Clear
1:05 PM 44.6 °F 40.7 °F 6.8 °F 21% 30.30 in 10.0 mi South 6.9 mph - N/A   Clear
1:25 PM 46.4 °F 41.9 °F 8.6 °F 22% 30.28 in 10.0 mi SSW 9.2 mph - N/A   Clear
1:45 PM 46.4 °F 43.5 °F 5.0 °F 18% 30.27 in 10.0 mi South 5.8 mph - N/A   Clear
2:05 PM 46.4 °F 43.5 °F 5.0 °F 18% 30.26 in 10.0 mi SSW 5.8 mph - N/A   Clear
2:25 PM 48.2 °F - 6.8 °F 19% 30.25 in 10.0 mi SSW 8.1 mph - N/A   Clear
2:45 PM 48.2 °F - 3.2 °F 16% 30.24 in 10.0 mi South 4.6 mph - N/A   Clear
3:05 PM 48.2 °F - 6.8 °F 19% 30.23 in 10.0 mi South 4.6 mph - N/A   Clear
3:25 PM 48.2 °F - 3.2 °F 16% 30.21 in 10.0 mi South 4.6 mph - N/A   Clear
4:05 PM 50.0 °F - 6.8 °F 17% 30.20 in 10.0 mi South 5.8 mph 9.2 mph N/A   Clear
4:25 PM 48.2 °F - 3.2 °F 16% 30.19 in 10.0 mi SSW 8.1 mph - N/A   Clear
4:45 PM 48.2 °F - 3.2 °F 16% 30.18 in 10.0 mi South 11.5 mph 16.1 mph N/A   Clear
5:05 PM 48.2 °F - 3.2 °F 16% 30.19 in 10.0 mi South 10.4 mph - N/A   Clear
5:25 PM 48.2 °F - 3.2 °F 16% 30.19 in 10.0 mi South 9.2 mph - N/A   Clear
5:45 PM 46.4 °F 41.1 °F 6.8 °F 20% 30.18 in 10.0 mi South 11.5 mph - N/A   Clear
6:05 PM 46.4 °F 41.1 °F 5.0 °F 18% 30.17 in 10.0 mi SSW 11.5 mph - N/A   Clear
6:25 PM 46.4 °F 44.3 °F 5.0 °F 18% 30.16 in 10.0 mi South 4.6 mph - N/A   Clear
6:45 PM 44.6 °F 40.7 °F 6.8 °F 21% 30.16 in 10.0 mi South 6.9 mph - N/A   Clear
7:05 PM 44.6 °F 42.2 °F 6.8 °F 21% 30.15 in 10.0 mi South 4.6 mph - N/A   Clear
7:25 PM 44.6 °F - 8.6 °F 23% 30.14 in 10.0 mi Calm Calm - N/A   Clear
7:45 PM 44.6 °F - 8.6 °F 23% 30.13 in 10.0 mi Calm Calm - N/A   Clear
8:05 PM 44.6 °F 42.2 °F 10.4 °F 25% 30.13 in 10.0 mi South 4.6 mph - N/A   Clear
8:25 PM 44.6 °F 42.2 °F 10.4 °F 25% 30.13 in 10.0 mi South 4.6 mph - N/A   Clear
8:45 PM 42.8 °F 39.3 °F 10.4 °F 27% 30.12 in 10.0 mi South 5.8 mph - N/A   Clear
9:05 PM 42.8 °F 38.6 °F 10.4 °F 27% 30.12 in 10.0 mi South 6.9 mph - N/A   Clear
9:25 PM 42.8 °F 39.3 °F 10.4 °F 27% 30.12 in 10.0 mi South 5.8 mph - N/A   Clear
9:45 PM 42.8 °F 40.1 °F 10.4 °F 27% 30.11 in 10.0 mi South 4.6 mph - N/A   Clear
10:05 PM 42.8 °F 40.1 °F 15.8 °F 34% 30.10 in 10.0 mi SSE 4.6 mph - N/A   Clear
10:25 PM 42.8 °F 39.3 °F 15.8 °F 34% 30.10 in 10.0 mi South 5.8 mph - N/A   Clear
10:45 PM 42.8 °F 39.3 °F 15.8 °F 34% 30.09 in 10.0 mi SSE 5.8 mph - N/A   Clear
11:05 PM 42.8 °F 39.3 °F 19.4 °F 39% 30.09 in 10.0 mi South 5.8 mph - N/A   Scattered Clouds
11:25 PM 41.0 °F 39.0 °F 19.4 °F 42% 30.08 in 10.0 mi South 3.5 mph - N/A   Scattered Clouds
11:45 PM 41.0 °F 37.1 °F 23.0 °F 49% 30.08 in 10.0 mi South 5.8 mph - N/A   Mostly Cloudy